User: anonymous
Location: Twentynine Palms Airport
(34.1316°N, 115.9458°W)
Time: 16:46:11
(UTC-07:00)
Language:

Oscar 19 - Orbit

View from above orbital plane
View from above orbital plane
View from above satellite
View from above satellite

Ground track
Ground track

The orbit data is extracted from the following two-line orbital elements,

1 20442U 90005G   14260.89861877  .00000127  00000-0  62635-4 0   507
2 20442 098.4831 196.8858 0011038 229.8312 130.1906 14.32587757287952
Epoch (UTC): 17 September 2014 21:34:00
Eccentricity: 0.0011038
inclination: 98.4831°
perigee height: 775 km
apogee height: 791 km
right ascension of ascending node: 196.8858°
argument of perigee: 229.8312°
revolutions per day: 14.32587757
mean anomaly at epoch: 130.1906°
orbit number at epoch: 28795

The dashed part of the orbit path shows where the satellite is in the earth's shadow,  

DLR